Find Navstar 2

NORAD ID: 10893 Int'l Des: 1978-047 Owner: SAMSO Country: US Constellation: GPS operational
MEO

Current View

Loading 3D Globe...

About Navstar 2

Description loading...

Upcoming Passes

Passes for default location (London). Set your location on the main map for personalized predictions.

Altitude History

Loading altitude history...

Two-Line Element Set

1 10893U 78047A 26145.35859132 -.00000067 00000-0 00000+0 0 9994
2 10893 62.6798 273.0356 0545023 41.7550 317.9351 2.01627480353266
Epoch: May 25, 2026 • Age: 33 hours

Current Status

Altitude 20872.1 km
Velocity 3.77 km/s
Sub-Earth Point -61.85°S, 47.76°E
Launch Date May 13, 1978
Age 48 years
Type navigation

Technical Details

Classification Payload
Mass 409.00 kg
Dry Mass 409.00 kg
Total Mass 775.00 kg
Length 2.40 m
Diameter 2.60 m
Span 5.30 m
Shape Box + 2 Pan
Manufacturer RWISB
Bus Type GPS
Phase Status In Orbit
Owner/State SAMSO/US

Most Searched